EW2875 Weather Reports


Display with metric or nautical units.
time (UTC)temp
F
wind
direction
speed
MPH
gust
MPH
rain 1hr
in
rain 24hr
in
rain mn
in
humidity
%
barometer
mb
20260904030003 51 167 11.0 13.0 0.00 0.00 0.00 93 998.0
20260904024503 52 176 12.0 20.0 0.00 0.00 0.00 92 998.3
20260904023003 52 185 14.0 20.0 0.00 0.00 0.00 92 998.3
20260904021503 52 182 14.0 26.0 0.00 0.00 0.00 92 998.5
20260904020003 51 172 11.0 14.0 0.00 0.00 0.00 92 998.5
20260904014526 52 181 12.0 15.0 0.00 0.00 0.00 92 998.6
20260904013005 52 194 9.0 13.0 0.00 0.00 0.00 90 998.8
20260904011505 53 187 10.0 15.0 0.00 0.00 0.00 91 999.0
20260904010005 52 185 11.0 16.0 0.00 0.01 0.00 90 999.3
20260904004505 54 189 12.0 19.0 0.00 0.01 0.00 90 999.5
20260904003005 53 183 11.0 15.0 0.00 0.01 0.00 89 999.6
20260904001505 54 181 10.0 15.0 0.00 0.01 0.00 89 999.7
20260904000005 54 180 12.0 15.0 0.00 0.01 0.00 89 999.8
20260903234505 54 178 11.0 15.0 0.00 0.02 0.00 89 999.9
20260903233005 54 172 11.0 14.0 0.00 0.02 0.00 89 1000.1
20260903231526 54 183 10.0 12.0 0.00 0.02 0.00 88 1000.3
20260903230006 54 192 10.0 13.0 0.00 0.02 0.00 87 1000.5
20260903224505 54 192 9.0 15.0 0.00 0.04 0.02 87 1000.8
20260903223005 55 200 12.0 19.0 0.00 0.05 0.02 87 1001.0
20260903221505 55 204 11.0 14.0 0.00 0.07 0.02 88 1001.0
20260903220005 55 201 11.0 16.0 0.00 0.10 0.02 89 1001.4
20260903214505 55 198 13.0 19.0 0.00 0.11 0.02 90 1001.5
20260903213005 55 203 11.0 18.0 0.00 0.12 0.02 90 1001.6
20260903211505 55 209 11.0 20.0 0.00 0.12 0.02 90 1001.6
20260903210005 55 227 5.0 14.0 0.00 0.12 0.02 90 1001.8
20260903204505 56 222 7.0 18.0 0.00 0.12 0.02 89 1001.9
20260903203005 56 207 12.0 22.0 0.00 0.12 0.02 89 1002.1
20260903201505 56 187 12.0 20.0 0.00 0.12 0.02 89 1002.1
20260903200026 56 178 12.0 16.0 0.00 0.12 0.02 90 1002.1
20260903194505 56 180 12.0 16.0 0.00 0.12 0.02 90 1002.2
20260903193005 56 180 10.0 14.0 0.00 0.12 0.02 89 1002.3
20260903191505 56 176 9.0 13.0 0.00 0.12 0.02 89 1002.2
20260903190004 56 172 10.0 13.0 0.00 0.12 0.02 87 1002.4
20260903184504 57 191 8.0 12.0 0.00 0.12 0.02 85 1002.4
20260903183004 58 194 10.0 19.0 0.00 0.12 0.02 85 1002.7
20260903181526 58 191 7.0 15.0 0.00 0.12 0.02 86 1003.0
20260903180005 58 189 5.0 8.0 0.00 0.12 0.02 85 1003.3
20260903174504 58 190 8.0 15.0 0.00 0.12 0.02 83 1003.4
20260903173004 59 209 8.0 14.0 0.00 0.12 0.02 82 1003.2
20260903171504 59 228 6.0 15.0 0.00 0.12 0.02 82 1003.5
20260903170004 60 225 11.0 23.0 0.00 0.12 0.02 80 1003.7
20260903164504 60 218 10.0 21.0 0.00 0.12 0.02 79 1003.9
20260903163005 60 213 10.0 18.0 0.00 0.12 0.02 81 1003.8
20260903161504 60 208 8.0 14.0 0.00 0.12 0.02 82 1004.1
20260903160004 60 209 6.0 10.0 0.00 0.12 0.02 81 1004.2
20260903154504 60 222 6.0 11.0 0.00 0.12 0.02 81 1004.4
20260903153004 60 229 5.0 10.0 0.00 0.12 0.02 81 1004.3
20260903151525 60 240 8.0 14.0 0.00 0.12 0.02 80 1004.4
20260903150005 60 246 6.0 13.0 0.00 0.12 0.02 79 1004.6
20260903144504 60 250 6.0 12.0 0.00 0.12 0.02 79 1004.5
20260903143005 60 249 2.0 10.0 0.00 0.12 0.02 79 1004.7
20260903141504 60 255 6.0 18.0 0.00 0.12 0.02 78 1004.7
20260903140004 61 258 3.0 13.0 0.00 0.12 0.02 78 1004.8
20260903134526 61 255 6.0 21.0 0.00 0.12 0.02 76 1004.9
20260903133004 61 257 9.0 21.0 0.00 0.12 0.02 75 1005.0
20260903131504 61 263 5.0 18.0 0.00 0.12 0.02 75 1004.8
20260903130004 61 254 6.0 20.0 0.00 0.12 0.02 75 1005.0
20260903124504 61 253 9.0 20.0 0.00 0.12 0.02 75 1005.1
20260903123004 61 258 10.0 21.0 0.00 0.12 0.02 75 1005.1
20260903121504 61 263 7.0 21.0 0.00 0.12 0.02 75 1004.8
20260903120004 61 255 7.0 24.0 0.00 0.12 0.02 75 1004.9
20260903114504 61 262 5.0 18.0 0.00 0.12 0.02 78 1005.1
20260903113004 61 256 7.0 22.0 0.00 0.12 0.02 74 1004.9
20260903111504 62 256 10.0 24.0 0.00 0.12 0.02 75 1004.6
20260903110004 61 255 13.0 32.0 0.00 0.12 0.02 77 1004.4
20260903104504 61 263 11.0 25.0 0.00 0.12 0.02 75 1004.5
20260903103004 62 266 5.0 18.0 0.00 0.12 0.02 75 1004.4
20260903101504 61 271 7.0 23.0 0.00 0.12 0.02 75 1004.1
20260903100004 60 270 8.0 22.0 0.00 0.12 0.02 77 1004.1
20260903094504 60 274 9.0 21.0 0.00 0.12 0.02 78 1003.8
20260903093004 60 278 11.0 27.0 0.00 0.12 0.02 77 1004.0
20260903091504 59 267 10.0 22.0 0.00 0.12 0.02 81 1004.1
20260903090004 59 264 13.0 26.0 0.00 0.12 0.02 83 1004.0
20260903084504 58 266 8.0 24.0 0.00 0.12 0.02 82 1003.8
20260903083025 58 256 8.0 21.0 0.00 0.12 0.02 84 1003.7
20260903081504 57 257 17.0 32.0 0.00 0.12 0.02 87 1003.5
20260903080004 57 261 14.0 27.0 0.00 0.12 0.02 87 1003.6
20260903074504 57 266 8.0 18.0 0.00 0.12 0.02 88 1003.8
20260903073025 56 267 6.0 23.0 0.00 0.12 0.02 90 1003.8
20260903071525 56 265 11.0 27.0 0.00 0.12 0.02 91 1003.4
20260903070004 56 274 9.0 23.0 0.00 0.12 0.02 94 1003.1
20260903064525 57 274 9.0 24.0 0.00 0.12 0.02 95 1003.1
20260903063004 57 258 9.0 23.0 0.00 0.12 0.02 96 1002.9
20260903061525 56 254 12.0 24.0 0.00 0.12 0.02 96 1002.6
20260903060004 56 252 11.0 22.0 0.00 0.12 0.02 96 1002.3
20260903054504 56 255 10.0 21.0 0.00 0.12 0.02 96 1002.1
20260903053004 56 252 10.0 22.0 0.00 0.12 0.02 96 1001.9
20260903051504 56 253 10.0 16.0 0.00 0.12 0.02 96 1001.8
20260903050004 56 252 10.0 20.0 0.00 0.12 0.02 96 1001.8
20260903044504 56 254 8.0 19.0 0.00 0.12 0.02 97 1001.7
20260903043025 56 247 8.0 19.0 0.00 0.12 0.02 97 1001.5
20260903041525 56 242 11.0 18.0 0.00 0.13 0.02 97 1001.3
20260903040004 56 241 11.0 18.0 0.00 0.13 0.02 97 1001.2
20260903034504 56 244 6.0 13.0 0.00 0.13 0.02 98 1001.1
20260903033004 56 243 3.0 11.0 0.00 0.13 0.02 98 1001.3
20260903031504 56 241 3.0 8.0 0.00 0.13 0.02 97 1001.3